Simultaneous Nadir Overpasses (SNOs) Predictions

Prediction of SNOs between GOES-15 and METOP-A Satellite Orbit:

Table of predicted SNOs for the next 14.0 days since TLE Epoch: 7/8/2016
<
Index Date Time (GOES-15) GOES-15 Lat,Lon METOP-A Lat,Lon Distance(km) Time Diff (sec)
1 07/09/2016 06:43:25 0.09,-135.49 -0.53,-138.17 305.15 80
2 07/10/2016 06:20:06 0.11,-135.48 0.59,-133.17 262.55 80
3 07/11/2016 18:41:36 -0.08,-135.46 0.45,-137.72 258.63 80
4 07/12/2016 18:18:18 -0.10,-135.45 -0.73,-132.74 308.81 80
5 07/14/2016 06:39:57 0.07,-135.43 -0.36,-137.33 216.28 80
6 07/15/2016 06:16:38 0.09,-135.42 0.77,-132.33 350.67 80
7 07/16/2016 18:38:08 -0.07,-135.38 0.28,-136.89 171.72 80
8 07/17/2016 18:14:48 -0.09,-135.36 -0.85,-131.89 394.76 80
9 07/19/2016 06:36:29
